Location: Tel Aviv
(32.0670°N, 34.7670°E)
Time: 02:07:22
(UTC+03:00)

AO-7 - Pass Details

Date: 24 September 2024
Orbit: 1440 x 1458 km, 102.0° (Epoch: 10 October)

Event Time Altitude Azimuth Distance (km) Brightness Sun altitude
Rises 05:39:00 0° 23° (NNE) 4,565 ? -11.7°
Reaches altitude 10° 05:41:57 10° 29° (NNE) 3,581 ? -11.1°
Maximum altitude 05:49:57 48° 102° (ESE) 1,819 ? -9.4°
Drops below altitude 10° 05:57:52 10° 175° (S) 3,554 ? -7.8°
Sets 06:00:46 0° 181° (S) 4,526 ? -7.1°
